Tracking 23583 objects as of 1-Aug-2021
HD Live streaming from Space Station
objects crossing your sky now

OBJECT B

Track OBJECT B now!


NORAD ID: 45986
Int'l Code: 2020-053B
Perigee: 35,790.6 km
Apogee: 35,796.4 km
Inclination: 0.0 °
Period: 1,436.1 minutes
Semi major axis: 42164 km
RCS: Unknown
Launch date: July 30, 2020
Source: Commonwealth of Independent States (former USSR) (CIS)
Launch site: TYURATAM MISSILE AND SPACE COMPLEX (TTMTR)

Note: This is a ROCKET BODY
aabbcc
Your satellite tracking list
Your tracking list is empty




NASA's NSSDC Master Catalog

Two Line Element Set (TLE):
1 45986U 20053B   21212.94493581 -.00000136  00000-0  00000-0 0  9994
2 45986   0.0410 254.0072 0000690  26.3613  89.5562  1.00272785  3780
Source of the keplerian elements: AFSPC